Lexington Weather

Lexington, Massachusetts, USA

73°F
8/7/2020 11:41am 
  • Lexington Conditions: Clear
  • Temperature: 73.4°F / 23.0°CWarmer 2.5°F than last hour.
  • Dew Point: 63.5°FIncreased 0.2°Fsince last hour.
  • Relative Humidity: 71%Decreased 6.0% since last hour.
  • Wind: Calm, 10-min avg: Calm, gust: 2 mph
  • Barometer: 30.13 inFalling 0.02  inHg/hr Falling Slowly
  • Visibility: 10 miles
  • Rain Today: 0.00 in
  •   

Regional Weather Roundup
for Boston / Norton, MA

        
000
ASUS41 KBOX 010604
RWRBOX

REGIONAL WEATHER ROUNDUP
NATIONAL WEATHER SERVICE BOSTON/NORTON MA
200 AM EDT SAT AUG 01 2020

NOTE:  "FAIR" INDICATES FEW OR NO CLOUDS BELOW 12,000 FEET WITH NO 
SIGNIFICANT WEATHER AND/OR OBSTRUCTIONS TO VISIBILITY.

MAZALL-010700-
EASTERN MASSACHUSETTS
  
CITY           SKY/WX    TMP DP  RH WIND       PRES   REMARKS
BOSTON         PTCLDY    73  63  70 CALM      29.85F                  
6HR MIN TEMP:  68; 6HR MAX TEMP:  73;                                

BEVERLY        CLEAR     66  64  93 CALM      29.85S                  
LAWRENCE       CLEAR     68  65  90 CALM      29.88S                  
BEDFORD        CLEAR     66  63  90 CALM      29.85S                  
BLUE HILL      NOT AVBL                                               
NORWOOD        FOG       62  59  90 CALM      29.86S VSB 1            
MARSHFIELD     CLEAR     66  66 100 W5        29.84F                  
PLYMOUTH       CLEAR     63  62  97 CALM      29.86S                  
TAUNTON        CLEAR     62  59  90 CALM      29.85S FOG              
NEW BEDFORD    CLEAR     64  63  96 CALM      29.85S FOG              
$$

MAZALL-010700-
CAPE COD AND THE ISLANDS
  
CITY           SKY/WX    TMP DP  RH WIND       PRES   REMARKS
FALMOUTH       CLEAR     66  66 100 CALM      29.85R                  
HYANNIS        CLEAR     63  62  97 CALM      29.83S                  
CHATHAM        CLEAR     68  66  93 NW3       29.85S                  
PROVINCETOWN   CLEAR     62  60  93 CALM      29.85F                  
NANTUCKET      PTCLDY    64  63  96 W5        29.84S FOG              
MARTHAS VNYRD  CLEAR     61  60  97 W5        29.85R FOG              
$$
 
MAZALL-010700-
CENTRAL AND WESTERN MASSACHUSETTS
  
CITY           SKY/WX    TMP DP  RH WIND       PRES   REMARKS
WORCESTER      CLEAR     68  64  87 CALM      29.90S                  
6HR MIN TEMP:  68; 6HR MAX TEMP:  77;                                

FITCHBURG      CLEAR     65  61  87 NW5       29.88S                  
ORANGE         CLEAR     63  61  93 CALM      29.91R                  
SPRINGFIELD    CLEAR     64  62  93 CALM      29.86S                  
WESTFIELD      CLEAR     65  61  87 N3        29.88R                  
NORTH ADAMS    CLEAR     60  58  92 CALM      29.92S                  
PITTSFIELD     CLEAR     62  59  90 CALM      29.91S                  
$$
 
RIZALL-010700-
RHODE ISLAND
  
CITY           SKY/WX    TMP DP  RH WIND       PRES   REMARKS
PROVIDENCE     CLEAR     70  68  93 W3        29.86S                  
6HR MIN TEMP:  70; 6HR MAX TEMP:  75;                                

NEWPORT        CLEAR     68  64  87 CALM      29.86R                  
BLOCK ISLAND   CLEAR     67  66  97 NW3       29.86S                  
SMITHFIELD     CLEAR     65  65 100 CALM      29.88S                  
WESTERLY       CLEAR     66  63  90 CALM      29.86S                  
$$
 
CTZALL-010700-
CONNECTICUT
  
CITY           SKY/WX    TMP DP  RH WIND       PRES   REMARKS
BRADLEY INTL   CLEAR     70  61  73 N8        29.86S                  
6HR MIN TEMP:  67; 6HR MAX TEMP:  80;                                

HARTFORD       CLEAR     71  68  90 CALM      29.86R                  
BRIDGEPORT     CLEAR     72  67  84 N3        29.86S                  
DANBURY        CLEAR     65  64  97 SW5       29.89S                  
GROTON         CLEAR     66  65  96 CALM      29.85S                  
NEW HAVEN      CLEAR     71  69  93 NW3       29.86S                  
CHESTER        FAIR      68  68 100 CALM      29.87S                  
MERIDEN        CLEAR     67  65  93 CALM      29.86S                  
WILLIMANTIC    CLOUDY    69  67  93 CALM      29.87S                  
OXFORD         CLEAR     65  64  97 CALM      29.90S                  
$$

MEZ002-015-021-024-NHZ003-005-008-011-012-014-VTZ005-008-010700-
NORTHERN NEW ENGLAND
  
CITY           SKY/WX    TMP DP  RH WIND       PRES   REMARKS
PORTLAND ME    PTCLDY    70  63  78 CALM      29.85F                  
6HR MIN TEMP:  69; 6HR MAX TEMP:  76;                                

BANGOR ME      CLEAR     66  59  78 NW6       29.84S                  
CONCORD NH     PTCLDY    64  60  87 CALM      29.88S                  
MANCHESTER NH  CLEAR     70  64  81 CALM      29.86S                  
NASHUA NH      CLEAR     67  65  93 NW3       29.87F                  
PORTSMOUTH NH  PTCLDY    67  61  80 NW3       29.84S                  
JAFFREY NH     CLEAR     61  58  90 CALM      29.92S                  
KEENE NH       CLEAR     61  60  97 CALM      29.91R                  
BURLINGTON VT  CLEAR     66  60  81 CALM      29.90S                  
MT. WASHINGTON NOT AVBL                                               
$$

NYZ052-076-010700-
EASTERN NEW YORK
  
CITY           SKY/WX    TMP DP  RH WIND       PRES   REMARKS
ALBANY         MOCLDY    68  61  78 NW5       29.90R                  
6HR MIN TEMP:  68; 6HR MAX TEMP:  79;                                

NEW YORK CITY  PTCLDY    76  69  79 CALM      29.85S                  
6HR MIN TEMP:  76; 6HR MAX TEMP:  83;                                

$$
 
ANZALL-010700-
MARINE OBSERVATIONS
  
STATION/POSITION TIME  TEMP    WIND        PRES    VSBY  WAVE
                       AIR SEA DIR/SP/G                  HT/PER
                 (UTC) (F)     (DEG/KT/KT) (MB)    (MI)  (FT/S)
BOSTON BUOY      0550   72 73  270/  6/  6 1009.5S         1/10
BUZZARDS BAY     0500          330/  5/  5 1011.8F
NANTUCKET SOUND  0540      76  320/  8/ 10 1009.6F
MASS BAY-STELLWA 0504   71     290/  8/  8 1008.6F  1 7/8  1/ 8
ISLE OF SHOALS   0500   71     290/  7/  7 1010.5S
S OF BLOCK IS    0526      76                N/A           3/ 8
$$

......................KEY.........................
  SKY/WX - SKY CONDITION/PRESENT WEATHER
  TMP    - TEMPERATURE IN FAHRENHEIT
  DWPT   - DEWPOINT IN FAHRENHEIT
  RH     - RELATIVE HUMIDITY IN PERCENT
  WIND   - DIRECTION AND SPEED IN MPH
  PRES   - MEAN SEA LEVEL PRESSURE IN INCHES OF HG
  WCI    - WIND CHILL INDEX
  VSB    - VISIBILITY IN MILES
  HX     - HEAT INDEX
  TC     - TEMPERATURE IN CELSIUS
  VRB    - VARIABLE WIND DIRECTION
  N/A    - NOT AVAILABLE
  
      

Other recent Regional Weather Roundups

Fri Aug 7, 11:04am

Fri Aug 7, 10:04am

Fri Aug 7, 9:04am

Fri Aug 7, 8:04am

Fri Aug 7, 7:04am

Fri Aug 7, 6:04am

Fri Aug 7, 5:04am

Fri Aug 7, 4:04am

Fri Aug 7, 3:04am

Fri Aug 7, 2:04am

Fri Aug 7, 1:05am

Fri Aug 7, 12:04am

Thu Aug 6, 11:04pm

Thu Aug 6, 10:04pm

Thu Aug 6, 9:04pm

Thu Aug 6, 8:04pm

Thu Aug 6, 7:04pm

Thu Aug 6, 6:04pm

Thu Aug 6, 5:04pm

Thu Aug 6, 4:05pm

Thu Aug 6, 3:04pm

Thu Aug 6, 2:05pm

Thu Aug 6, 1:04pm

Thu Aug 6, 12:04pm

Thu Aug 6, 11:04am

Thu Aug 6, 10:04am

Thu Aug 6, 9:04am

Thu Aug 6, 8:04am

Thu Aug 6, 7:04am

Thu Aug 6, 6:04am

Thu Aug 6, 5:04am

Thu Aug 6, 4:04am

Thu Aug 6, 3:04am

Thu Aug 6, 2:05am

Thu Aug 6, 1:04am

Thu Aug 6, 12:04am

Wed Aug 5, 11:04pm

Wed Aug 5, 10:04pm

Wed Aug 5, 9:04pm

Wed Aug 5, 8:05pm

Wed Aug 5, 7:04pm

Wed Aug 5, 6:04pm

Wed Aug 5, 5:04pm

Wed Aug 5, 4:05pm

Wed Aug 5, 3:04pm

Wed Aug 5, 2:04pm

Wed Aug 5, 1:04pm

Wed Aug 5, 12:04pm

Wed Aug 5, 11:04am

Wed Aug 5, 10:04am

Wed Aug 5, 9:04am

Wed Aug 5, 8:04am

Wed Aug 5, 7:04am

Wed Aug 5, 6:04am

Wed Aug 5, 5:04am

Wed Aug 5, 4:04am

Wed Aug 5, 3:04am

Wed Aug 5, 2:05am

Wed Aug 5, 1:04am

Wed Aug 5, 12:05am

Tue Aug 4, 11:05pm

Tue Aug 4, 10:05pm

Tue Aug 4, 9:04pm

Tue Aug 4, 8:04pm

Tue Aug 4, 7:05pm

Tue Aug 4, 6:05pm

Tue Aug 4, 5:05pm

Tue Aug 4, 4:05pm

Tue Aug 4, 3:04pm

Tue Aug 4, 2:05pm

Tue Aug 4, 1:04pm

Tue Aug 4, 12:05pm

Tue Aug 4, 11:04am

Tue Aug 4, 10:04am

Tue Aug 4, 9:04am

Tue Aug 4, 8:04am

Tue Aug 4, 7:04am

Tue Aug 4, 6:04am

Tue Aug 4, 5:04am

Tue Aug 4, 4:04am

Tue Aug 4, 3:04am

Tue Aug 4, 2:04am

Tue Aug 4, 1:04am

Tue Aug 4, 12:04am

Mon Aug 3, 11:04pm

Mon Aug 3, 10:04pm

Mon Aug 3, 9:04pm

Mon Aug 3, 8:05pm

Mon Aug 3, 7:04pm

Mon Aug 3, 6:04pm

Mon Aug 3, 5:04pm

Mon Aug 3, 4:05pm

Mon Aug 3, 3:04pm

Mon Aug 3, 2:04pm

Mon Aug 3, 1:04pm

Mon Aug 3, 12:05pm

Mon Aug 3, 11:04am

Mon Aug 3, 10:04am

Mon Aug 3, 9:05am

Mon Aug 3, 8:04am

Mon Aug 3, 7:04am

Mon Aug 3, 6:04am

Mon Aug 3, 5:04am

Mon Aug 3, 4:04am

Mon Aug 3, 3:04am

Mon Aug 3, 2:04am

Mon Aug 3, 1:04am

Mon Aug 3, 12:05am

Sun Aug 2, 11:04pm

Sun Aug 2, 10:04pm

Sun Aug 2, 9:04pm

Sun Aug 2, 8:04pm

Sun Aug 2, 7:04pm

Sun Aug 2, 6:04pm

Sun Aug 2, 5:04pm

Sun Aug 2, 4:05pm

Sun Aug 2, 3:04pm

Sun Aug 2, 2:05pm

Sun Aug 2, 1:04pm

Sun Aug 2, 12:04pm

Sun Aug 2, 11:04am

Sun Aug 2, 10:04am

Sun Aug 2, 9:05am

Sun Aug 2, 8:05am

Sun Aug 2, 7:04am

Sun Aug 2, 6:04am

Sun Aug 2, 5:04am

Sun Aug 2, 4:05am

Sun Aug 2, 3:04am

Sun Aug 2, 2:04am

Sun Aug 2, 1:04am

Sun Aug 2, 12:05am

Sat Aug 1, 11:04pm

Sat Aug 1, 10:04pm

Sat Aug 1, 9:04pm

Sat Aug 1, 8:05pm

Sat Aug 1, 7:04pm

Sat Aug 1, 6:04pm

Sat Aug 1, 5:05pm

Sat Aug 1, 4:05pm

Sat Aug 1, 3:04pm

Sat Aug 1, 2:04pm

Sat Aug 1, 1:04pm

Sat Aug 1, 12:04pm

Sat Aug 1, 11:05am

Sat Aug 1, 10:05am

Sat Aug 1, 9:04am

Sat Aug 1, 8:04am

Sat Aug 1, 7:04am

Sat Aug 1, 6:04am

Sat Aug 1, 5:04am

Sat Aug 1, 4:05am

Sat Aug 1, 3:04am

Sat Aug 1, 1:04am

Sat Aug 1, 12:05am

Fri Jul 31, 11:05pm

Fri Jul 31, 10:04pm

Fri Jul 31, 9:04pm

Fri Jul 31, 8:05pm

Fri Jul 31, 7:05pm

Fri Jul 31, 6:04pm

Fri Jul 31, 5:04pm

Fri Jul 31, 4:05pm

Fri Jul 31, 3:04pm

Fri Jul 31, 2:05pm

Fri Jul 31, 1:04pm

Fri Jul 31, 12:04pm

Meta data:

ID: b7a4c616-50db-4a59-99c2-789d79c78c01
Link: https://api.weather.gov/products/b7a4c616-50db-4a59-99c2-789d79c78c01